Location: Tauranga
(37.6860°S, 176.1670°E)
Time: 08:26:15
(UTC+13:00)

Cosmos 1933 - Pass Details

Date: 24 January 2019
Orbit: 549 x 562 km, 82.5° (Epoch: 16 October)

Event Time Altitude Azimuth Distance (km) Brightness Sun altitude
Exits shadow 21:36:37 15° 72° (ENE) 1,551 5.0 -11.4°
Drops below altitude 10° 21:40:28 10° 134° (SE) 1,881 5.9 -12.0°
Enters shadow 22:43:39 -55° 350° (N) 11,098 9.9 -21.3°
Maximum altitude 23:14:01 30° 258° (WSW) 1,024 5.0 -25.0°
